This is the latest recevied weather packets stored in our database for station/object HB4LO-13. If no packets are shown the sender has not sent any weather packets the latest 10 day(s).
| Time | Temp. | Humidity | Pressure | Rain* | Wind** | Luminosity | Snow |
|---|---|---|---|---|---|---|---|
| 1778262846 | 16.67° C | 61% | - | 0.76 mm | - | - | - |
| 1778262786 | 16.67° C | 62% | - | 0.76 mm | - | - | - |
| 1778262726 | 16.67° C | 65% | - | 0.76 mm | - | - | - |
| 1778262666 | 16.67° C | 62% | - | 0.76 mm | - | - | - |
| 1778262606 | 16.67° C | 67% | - | 0.76 mm | - | - | - |
| 1778262546 | 16.67° C | 68% | - | 0.76 mm | - | - | - |
| 1778262486 | 16.67° C | 63% | - | 0.76 mm | - | - | - |
| 1778262426 | 16.67° C | 63% | - | 0.76 mm | - | - | - |
| 1778262366 | 16.67° C | 62% | - | 0.76 mm | - | - | - |
| 1778262306 | 16.67° C | 64% | - | 0.76 mm | - | - | - |
| 1778262246 | 16.67° C | 65% | - | 0.76 mm | - | - | - |
| 1778262186 | 16.67° C | 63% | - | 0.76 mm | - | - | - |
| 1778262126 | 16.67° C | 63% | - | 0.76 mm | - | - | - |
| 1778262066 | 17.22° C | 64% | - | 0.76 mm | - | - | - |
| 1778262006 | 17.22° C | 62% | - | 0.76 mm | - | - | - |
| 1778261946 | 17.22° C | 63% | - | 0.76 mm | - | - | - |
| 1778261886 | 17.22° C | 59% | - | 0.76 mm | - | - | - |
| 1778261826 | 17.78° C | 61% | - | 0.51 mm | - | - | - |
| 1778261766 | 17.78° C | 59% | - | 0.51 mm | - | - | - |
| 1778261706 | 18.89° C | 57% | - | 0.25 mm | - | - | - |
| 1778261646 | 18.89° C | 53% | - | 0.25 mm | - | - | - |
| 1778261586 | 19.44° C | 48% | - | 0 mm | - | - | - |
| 1778261526 | 19.44° C | 48% | - | 0 mm | - | - | - |
| 1778261466 | 20° C | 44% | - | 0 mm | - | - | - |
| 1778261406 | 20° C | 43% | - | 0 mm | - | - | - |
* Rain latest hour (hover to see other rain measurements)
** Current wind speed in m/s (hover to see current wind gust speed)